Showing default

HULIANWANG DIGUI-68, 65228

Orbit data source: Space-Track

HULIANWANG DIGUI-68, 65228 is a payload satellite owned by Zhongguo Xingwang (CN) in LEO that was launched on Sun, 17 Aug 2025 UTC via a CHANG ZHENG 6A launch vehicle from the Taiyaun Space Center, China (TSC). Payload-class satellites include a variety of spacecraft equipped with specific instruments for various scientific and technological missions. These include communications satellites like Starlink; space stations such as the ISS; scientific satellites like the Hubble; Earth observation satellites from companies like Planet Labs, Umbra, and HawkEye 360; GPS; miniature CubeSats for education and research; and military/defense satellites.

Loading next visibility...
Identifier
65228, 2025-178A
Orbit
LEO
Country
Flag of CNCN / PRC
Related business
Manufacturer
CAST
Mission
Operational Civil Communications
Bus & Motor
XINGWANG C, Unknown motor
Mass
~800 kg wet, ~800 kg dry
Launch date (UTC)
2025-08-17 (10 months ago)
Launch vehicle
CHANG ZHENG 6A
Launch site
Taiyaun Space Center, China (TSC)
Object type
Payload
Rocket body
Debris
Shape & HBR
Box + 2 Pan, 2.3 m
Radar Cross Section
5.935 m², Large (>1 m²)

Expand to show TLE details & history
Last TLE update: 9 hours ago

TLE from 9 hours ago
0 HULIANWANG DIGUI-68
1 65228U 25178A   26171.45450020 -.00000001  00000-0 -35760-4 0  9991
2 65228  86.4979  12.4217 0001947  93.2586 266.8771 13.24410438 40741
Epoch: 2026-06-20T10:54Z
TLE epoch observation values (Epoch: 2026-06-20T10:54:28.817Z)
Latitude
0.00001°
Longitude
-59.86726°
Altitude
1,170.895 km
Speed
7.268 km/s
True Right ascension
00h 49m 41s
True Declination
0° 00' 00"
Sunlit
Object was in daylight at epoch
Visualization orbit readout
Latitude
Unknown
Longitude
Unknown
Altitude
Unknown
Speed
Unknown
Apparent Right ascension
Unknown
Apparent Declination
Unknown
Sunlit
N/A
Visualization observer readout
Local Sidereal Time
07:15:25
Azimuth
Unknown
Elevation
Unknown
Doppler factor
Unknown
Orbital elements
Apogee altitude
1,166.509 km
Perigee altitude
1,163.572 km
Semi-major axis
7,543.177 km
Eccentricity
0.00019
Inclination
86.4979°
RAAN
12.4217°
Arg. of periapsis
93.2586°
True anomaly
266.85482°
Mean anomaly
266.8771°
Eccentric anomaly
266.86596°
Mean motion
3.31293 °/min
Orbital period
108.67 mins
BSTAR
-0.00003576
Loading maneuver chart data...
Computing Atmospheric mass density...
Loading historical data...
Loading historical data...
Loading historical data...
Loading historical data...
Loading historical data...
Loading historical data...
Loading historical data...

Documentation

Showing up to 5 results
|